Weather History for Brier Island, NS

Change the Weather History Date:

Thursday, February 14, 2013

  Actual Average Record
Temperature  
Mean Temperature 34 °F -  
Max Temperature 36 °F - - ()
Min Temperature 32 °F - - ()
Degree Days  
Heating Degree Days 31    
Moisture  
Dew Point 27 °F    
Average Humidity 73    
Maximum Humidity 92    
Minimum Humidity 50    
Precipitation  
Precipitation 0.00 in - - ()
Sea Level Pressure  
Sea Level Pressure 29.84 in    
Wind  
Wind Speed 9 mph ()    
Max Wind Speed 17 mph    
Max Gust Speed -    
T = Trace of Precipitation, MM = Missing Value Source: Averaged Metar Reports

Daily Weather History Graph

Daily Weather History Graph

Search for Another Location

Airport:

Trip Planner

Search our weather history database for the weather conditions in past years. The results will help you decide how hot, cold, wet, or windy it might be!

Date:

Astronomy

Feb. 14, 2013 Rise Set
Actual Time 7:26 AM AST 5:53 PM AST
Civil Twilight 6:56 AM AST 6:23 PM AST
Nautical Twilight 6:22 AM AST 6:57 PM AST
Astronomical Twilight 5:48 AM AST 7:31 PM AST
Moon 9:13 AM AST (2/14) 11:06 PM AST (2/14)
Length of Visible Light 11h 27m
Length of Day
10h 27m
Waxing Crescent, 21% of the Moon is Illuminated
Feb 14
Waxing Crescent
Feb 17
First Quarter
Feb 25
Full
Mar 4
Last Quarter
Mar 11
New

Hourly Weather History & Observations

Time (AST) Temp. Windchill Dew Point Humidity Pressure Visibility Wind Dir Wind Speed Gust Speed Precip Events Conditions
12:00 AM 37.2 °F 31.2 °F 30.9 °F 78% 29.78 in - West 8.1 mph - N/A   Unknown
1:00 AM 36.5 °F - 30.7 °F 80% 29.77 in - NE 2.3 mph - N/A   Unknown
2:00 AM 36 °F - 33 °F 83% 29.74 in - ENE 8.1 mph - -  
2:00 AM 36.0 °F 29.6 °F 31.3 °F 83% 29.74 in - ENE 8.1 mph - N/A   Unknown
3:00 AM 33.4 °F 25.9 °F 31.5 °F 92% 29.74 in - East 9.2 mph - N/A   Unknown
4:00 AM 33.8 °F 28.6 °F 31.8 °F 92% 29.75 in - ENE 5.8 mph - N/A   Unknown
5:00 AM 33.4 °F 25.4 °F 31.5 °F 92% 29.76 in - NE 10.4 mph - N/A   Unknown
6:00 AM 33.1 °F 23.4 °F 30.9 °F 92% 29.75 in - NE 13.8 mph - N/A   Unknown
7:00 AM 32.9 °F 23.7 °F 30.7 °F 92% 29.76 in - ENE 12.7 mph - N/A   Unknown
8:00 AM 33 °F - 31 °F 88% 29.78 in - NE 8.1 mph - -  
8:00 AM 32.9 °F 25.9 °F 30.7 °F 92% 29.78 in - NE 8.1 mph - N/A   Unknown
9:00 AM 33.1 °F 25.5 °F 28.6 °F 84% 29.79 in - NNE 9.2 mph - N/A   Unknown
10:00 AM 34.5 °F 27.3 °F 27.9 °F 77% 29.78 in - NNE 9.2 mph - N/A   Unknown
11:00 AM 35.4 °F 27.3 °F 29.8 °F 80% 29.80 in - North 11.5 mph - N/A   Unknown
12:00 PM 35.8 °F 25.7 °F 26.6 °F 69% 29.81 in - NNW 17.3 mph - N/A   Unknown
1:00 PM 35.4 °F 25.3 °F 25.7 °F 68% 29.81 in - NNW 17.3 mph - N/A   Unknown
2:00 PM 35 °F - 25 °F 56% 29.83 in - NW 17.3 mph - -  
2:00 PM 34.9 °F 24.6 °F 25.2 °F 68% 29.83 in - NW 17.3 mph - N/A   Unknown
3:00 PM 34.7 °F 24.3 °F 24.3 °F 66% 29.86 in - NW 17.3 mph - N/A   Unknown
4:00 PM 35.8 °F 26.1 °F 23.4 °F 61% 29.88 in - NW 16.1 mph - N/A   Unknown
5:00 PM 35.6 °F 26.2 °F 23.4 °F 61% 29.90 in - NNW 15.0 mph - N/A   Unknown
6:00 PM 35.4 °F 26.4 °F 24.1 °F 63% 29.93 in - NW 13.8 mph - N/A   Unknown
7:00 PM 35.1 °F 27.9 °F 21.7 °F 58% 29.95 in - NW 9.2 mph - N/A   Unknown
8:00 PM 35 °F - 23 °F 51% 29.98 in - NNW 6.9 mph - -  
8:00 PM 35.2 °F 29.5 °F 23.4 °F 62% 29.98 in - NNW 6.9 mph - N/A   Unknown
9:00 PM 35.8 °F 30.9 °F 21.7 °F 57% 30.01 in - NW 5.8 mph - N/A   Unknown
10:00 PM 35.8 °F 27.8 °F 20.7 °F 54% 30.03 in - WNW 11.5 mph - N/A   Unknown
11:00 PM 35.4 °F 29.0 °F 18.5 °F 50% 30.01 in - NW 8.1 mph - N/A   Unknown